Regional Weather Roundup
Issued by NWS

Home | Current Version | Previous Version | Text Only | Print | Product List | Glossary On
Versions: 1 2 3 4 5 6 7 8 9 10 11 12 13 14 15 16 17 18 19 20 21 22 23 24 25 26 27 28 29 30 31 32 33 34 35 36 37 38 39 40 41 42 43 44 45 46 47 48 49 50
000
ASUS42 KTBW 291018
RWRFL
FLORIDA REGIONAL WEATHER ROUNDUP
NATIONAL WEATHER SERVICE TAMPA BAY RUSKIN FL
600 AM EDT MON MAY 29 2017

NOTE: "FAIR" INDICATES FEW OR NO CLOUDS BELOW 12,000 FEET WITH NO
SIGNIFICANT WEATHER AND/OR OBSTRUCTIONS TO VISIBILITY.

FLZ001>010-012>015-112-114-115-291100-
PANHANDLE FLORIDA

CITY           SKY/WX    TMP DP  RH WIND       PRES   REMARKS
PENSACOLA      LGT RAIN  78  74  87 SE8       29.98R
PENSACOLA NAS  TSTM      76  74  93 SE8       29.98R
MILTON NAS     CLOUDY    73  72  96 S5        29.99
CRESTVIEW      MOCLDY    71  69  93 CALM      29.99S
DUKE FIELD     FAIR      73  72  97 S6        29.98R
VALPARAISO     CLOUDY    76  73  90 SE5       29.99R
MARY ESTHER    MOCLDY    77  74  92 SE5       29.97S
TRI COUNTY     MOCLDY    72  72 100 CALM      29.99  FOG
PANAMA CITY    CLOUDY    75  73  93 CALM      29.99S
TYNDALL AFB    PTCLDY    76  75  96 CALM      29.99F
APALACHICOLA   CLOUDY    73  73 100 CALM      30.00S

STATION/POSITION SKY/WX   TEMP    WIND        PRES    WAVE   SWELL
                          AIR SEA DIR/SP/G            HT/PER HT/PER
                          (F)     (DEG/KT/KT) (MB)    (FT/S) (FT/S)
30.1N   87.6W              74 78  340/ 10/ 12 1015.0R   3/ 5   3/ 5
29.2N   88.2W              80 80  220/ 14/ 17 1015.0
28.8N   86.0W              78 78  230/  2/  2 1015.7R   2/ 4   2/ 5
PANAMA CITY BEAC           77 79   50/  4/  5 1015.8F
TOWER C                    77     270/  3/  4 1016.9R
28.5N   84.5W              77 78  270/  4/  4 1016.0F   2/ 3   2/ 8

$$
FLZ011-016>038-118-127-128-134-139-239-291100-
NORTH FLORIDA

CITY           SKY/WX    TMP DP  RH WIND       PRES   REMARKS
MARIANNA       PTCLDY    74  73  97 S3        29.99F
TALLAHASSEE    FOG       73  73 100 CALM      30.00F VSB 3/4
PERRY          CLOUDY    74  73  96 CALM      30.02S FOG
CROSS CITY     PTCLDY    72  72 100 CALM      30.01F
LAKE CITY      FAIR      73  73 100 W6        30.02S
GAINESVILLE    MOCLDY    75  73  93 W7        30.02R
WILLISTON      CLEAR     77  75  94 CALM      30.02S FOG
PALATKA        FAIR      72  72 100 W3        30.02S
MAYPORT NAS    CLEAR     78  75  90 W6        29.99R
JACKSONVILLE   CLEAR     76  73  91 SW5       29.99R
JAX NAS        PTCLDY    76  74  93 W6        30.00S
FERNANDINA BEA FAIR      77  73  88 CALM      29.98R
ST AUGUSTINE   CLEAR     74  73  97 W3        30.01S
PALM COAST     FAIR      74  73  97 CALM      30.01S

STATION/POSITION SKY/WX   TEMP    WIND        PRES    WAVE   SWELL
                          AIR SEA DIR/SP/G            HT/PER HT/PER
                          (F)     (DEG/KT/KT) (MB)    (FT/S) (FT/S)
SHELL POINT      NOT AVBL
KEATON BEACH               77     350/  2/  3 1016.0F
CEDAR KEY                  78     310/  5/  7 1016.9R
FERNANDINA                 76 80  240/  5/  9 1016.1R
30.7N   81.3W                 79                N/A     2/ 4
MAYPORT                    77 80  270/  9/ 11 1016.0R
31.4N   80.9W              78 78  240/ 14/ 16 1014.0R   2/ 4   2/ 9
ST AUGUSTINE               75 77  270/  5/  6 1016.9R

$$
FLZ040-043>046-052-053-057-058-063-144-291100-
INTERIOR CENTRAL FLORIDA

CITY           SKY/WX    TMP DP  RH WIND       PRES   REMARKS
OCALA          CLOUDY    76  74  93 NW6       30.04R
THE VILLAGES     N/A     75  75 100 CALM      29.94S
LEESBURG       CLOUDY    76  75  97 NW5       30.04S
SANFORD        CLOUDY    77  72  84 NW8       30.03R
ORLANDO INTL   MOCLDY    74  74 100 NW7       30.04S
KISSIMMEE      CLOUDY    74  73  97 NW6       30.05S
WINTER HAVEN   PTCLDY    74  72  93 N6        30.05R
LAKELAND       CLEAR     72  72 100 N5        30.05R FOG
BARTOW         FAIR      72 N/A N/A N5        30.05R
OKEECHOBEE     CLEAR     70  68  94 N5        30.03R FOG

$$
FLZ041-047-054-059-064-141-147-291100-
EAST CENTRAL FLORIDA

CITY           SKY/WX    TMP DP  RH WIND       PRES   REMARKS
DAYTONA BEACH  CLOUDY    73  73 100 SW3       30.02S
DELAND         CLOUDY    77  73  88 W3        30.02S
JFK SPACE CTR  CLOUDY    74  74  98 NW3       30.02R
CAPE CANAVERAL MOCLDY    77  72  83 N8        30.02R
PATRICK AFB    MOCLDY    77  73  88 NW13      30.02R
MELBOURNE      CLOUDY    74  72  93 NW9       30.03R
VERO BEACH     CLEAR     72  71  97 NW7       30.03R
FT PIERCE      CLEAR     71  69  93 NW3       30.02R
STUART         CLEAR     75  72  88 N6        30.03R

STATION/POSITION SKY/WX   TEMP    WIND        PRES    WAVE   SWELL
                          AIR SEA DIR/SP/G            HT/PER HT/PER
                          (F)     (DEG/KT/KT) (MB)    (FT/S) (FT/S)
28.5N   80.2W              77 76  320/ 14/ 17 1017.6
28.9N   78.5W              80 80  230/  8/ 10 1016.0R   2/ 4   2/ 4
TRIDENT PIER               76 79  320/  8/ 11 1018.2R
28.4N   80.5W                 76                N/A     1/ 8
27.5N   80.2W                 79                N/A     1/ 2

$$
FLZ050-056-061-142-242-148-248-149-249-151-251-155-255-
160-260-291100-
WEST CENTRAL FLORIDA

CITY           SKY/WX    TMP DP  RH WIND       PRES   REMARKS
CRYSTAL RIVER  FAIR      75  72  88 CALM      30.03S
INVERNESS      MOCLDY    70  70 100 CALM      30.03F FOG
BROOKSVILLE    PTCLDY    68  67  96 CALM      30.04S
CLEARWATER AIR FAIR      77  73  88 NW3       30.03S
ST PETE CLEARW CLEAR     75  72  90 NW3       30.04R
TAMPA INTL     PTCLDY    76  73  91 N3        30.04R
TAMPA EXEC     PTCLDY    70  68  94 CALM      30.05R FOG
PLANT CITY     PTCLDY    73  73 100 N3        30.06R
MACDILL AFB    PTCLDY    76  76 100 N6        30.04R
PETER O KNIGHT MOCLDY    79  77  94 CALM      30.04S
ST PETERSBURG  CLEAR     79  73  82 NW7       30.02R
SARASOTA       CLEAR     73  70  90 CALM      30.02R
VENICE         FAIR      79  75  89 NW6G12    30.03R

STATION/POSITION SKY/WX   TEMP    WIND        PRES    WAVE   SWELL
                          AIR SEA DIR/SP/G            HT/PER HT/PER
                          (F)     (DEG/KT/KT) (MB)    (FT/S) (FT/S)
27.3N   84.2W                 78                N/A     2/ 7
CLEARWATER BEACH           80 83  310/  9/ 12 1017.1R
MIDDLE TAMPA BAY           79     340/  9/ 10 1017.1R
VENICE                     80 82  320/ 10/ 11 1016.5R

$$
FLZ066-069-070-075>078-162-262-165-265-291100-
SOUTHWEST FLORIDA AND KEYS

CITY           SKY/WX    TMP DP  RH WIND       PRES   REMARKS
PUNTA GORDA    FOG       67  67 100 N5        30.05R VSB 1/4
FT MYERS       CLEAR     74  74 100 CALM      30.01R
SOUTHWEST INTL PTCLDY    72  71  97 CALM      30.02R FOG
NAPLES         CLEAR     76  73  91 CALM      30.01R
MARCO ISLAND   CLEAR     73  72  94 CALM      30.02R
IMMOKALEE      CLOUDY    68  68 100 CALM      30.03R
MARATHON       PTCLDY    83  77  82 VRB3      30.01R
KEY WEST NAS   CLEAR     78  76  93 SE6       30.02R
KEY WEST INTL  CLEAR     82  75  79 SE9       30.02R

STATION/POSITION SKY/WX   TEMP    WIND        PRES    WAVE   SWELL
                          AIR SEA DIR/SP/G            HT/PER HT/PER
                          (F)     (DEG/KT/KT) (MB)    (FT/S) (FT/S)
NAPLES                        84   70/  3/  3 1016.3R
26.0N   85.6W              79     340/ 19/ 21 1015.9
DRY TORTUGAS               81     130/  6/  7 1016.4R
SAND KEY                   81     140/  9/ 10 1016.9R
LONG KEY                   83 88  190/  5/  6 1016.4R
MOLASSES REEF              82 82  240/  3/  4 1016.7R

$$
FLZ067-068-071>074-168-172>174-291100-
SOUTHEAST FLORIDA

CITY           SKY/WX    TMP DP  RH WIND       PRES   REMARKS
W PALM BEACH   CLEAR     75  72  90 W6        30.01R
FT LAUDER-EXEC CLEAR     78  69  73 W6        30.01R
FT LAUDERDALE  CLEAR     77  71  82 W3        30.00R
POMPANO BEACH    N/A    N/A N/A N/A MISG      30.01R
PEMBROKE PINES CLEAR     77  71  82 W5        30.02R
OPA LOCKA      CLEAR     77  73  87 W3        30.01R
MIAMI          PTCLDY    78  71  79 W3        30.01R
WEST KENDALL     N/A    N/A N/A N/A MISG        N/A
HOMESTEAD      CLEAR     73  73 100 CALM      30.01R

STATION/POSITION SKY/WX   TEMP    WIND        PRES    WAVE   SWELL
                          AIR SEA DIR/SP/G            HT/PER HT/PER
                          (F)     (DEG/KT/KT) (MB)    (FT/S) (FT/S)
PORT EVERGLADES            79     230/  5/  8 1015.9R
VIRGINIA KEY               80 86  250/  4/  6 1015.3R
LAKE WORTH                 76 80              1017.0R
FOWEY ROCKS                81 82  220/  6/  6 1016.9R
SETTLEMENT POINT           82     200/ 15/ 18 1015.8R

$$




USA.gov is the U.S. government's official web portal to all federal, state and local government web resources and services.